Aérodrome :
LOGIN :

S'inscrire | Disclaimer

   EN    FR    IT 

 










Légende :    VFR   VFR Marginal   IFR   IFR Intensif   IFR Très Intensif
Visi : 
Plafond : 
>= 8 km
>= 3000ft
5 à 8 km
1000 à 3000 ft
1500m à 5 km
500 à 1000 ft
800 à 1500m
200 à 500 ft
< 800m
< 200 ft
Symboles :   Orages  Brouillard  Fortes neiges  Fortes précipitations  Vent > 20 kt
SIGMETs :   Divers  Orages  Givrage  Turbulence  Onde Orograph.  Cendres Volcan.







- Altitude de l'aérodrome : 1106 ft
- Voir les cartes d'approche


LFSO - Nancy / Ochey

DERNIER METAR :
  • 192000Z AUTO 22004KT CAVOK 21/15 Q1020

METARs EXPIRÉS :
  • 191930Z AUTO 22003KT CAVOK 21/15 Q1020
  • 191900Z AUTO 23003KT CAVOK 22/15 Q1020
  • 191830Z AUTO 21004KT CAVOK 23/15 Q1020
  • 191800Z AUTO 21004KT CAVOK 24/15 Q1020
  • 191730Z AUTO 23006KT CAVOK 25/15 Q1020

TAF TAF LFSO
Valide du 19 à 15h jusqu'au 20 à 15h UTC


191400Z 1915/2015 22012KT CAVOK
TEMPO 1921/2007 VRB02KT
Pas de NOTAMs connus pour ce terrain.



MET'MAP, la Météo Aéronautique d'un coup d'oeil ! - Copyright ORBIFLY Décembre 2007 - Disclaimer

ORBIFLY MET'MAP TEAM :

Programmation & Développement : Alexandra Zaïnal
Conception & Développement : Baudouin d'Aumeries
Co-Programmation & Développement : Marc-Olivier Méhu
Soutien technique & logistique : Manuel Goepfert

Contact : metmap@orbifly.com




SOURCES & CREDITS :

   NOAA